Theta_e
357 357 355 355 355 356 358 358 358 359 362 360 360 363 364 367 369 369 369 370 370 370 370 371 372 371 369 370 372 371 370 369 368 368 369 367 366 363 361 362 364 364
357 357 357 356 357 358 358 359 361 360 363 364 363 364 367 367 367 367 367 368 369 368 370 369 370 371 371 368 370 368 368 368 367 366 367 367 366 364 363 364 363 366
356 356 355 354 352 353 352 356 360 361 360 360 363 365 364 365 365 367 367 367 367 365 369 370 369 370 369 369 370 368 365 368 366 364 367 367 364 364 365 362 363 364
357 356 354 353 353 353 353 355 357 359 360 360 360 361 362 361 364 365 366 367 367 367 368 368 367 367 368 368 369 366 366 368 365 368 366 367 367 364 364 365 363 363
356 356 355 355 354 356 355 353 352 354 356 357 359 361 362 363 364 363 364 365 367 366 367 367 368 366 368 368 369 366 365 364 366 369 366 365 367 366 364 364 365 363
357 357 357 355 356 356 353 352 352 352 353 354 357 359 359 361 361 361 362 362 362 362 362 364 365 365 366 367 367 366 364 362 363 368 365 365 364 364 362 364 365 364
354 356 355 355 354 354 353 353 353 353 352 353 357 357 358 358 359 361 362 362 361 362 361 364 366 365 366 366 367 367 367 366 366 367 366 364 366 366 364 365 366 364
354 354 355 354 353 353 353 352 352 352 353 354 353 355 357 356 358 358 360 361 360 361 363 363 366 367 364 364 365 365 365 364 365 367 366 365 366 366 366 365 366 366
353 353 354 353 352 352 351 350 351 351 353 352 350 350 355 355 356 356 359 361 360 361 363 363 365 364 364 364 364 365 364 363 362 364 364 363 363 364 363 365 364 364
354 353 352 352 350 351 350 351 350 350 352 351 350 349 350 354 355 356 359 361 359 360 362 362 363 362 362 363 364 365 364 364 365 365 364 364 362 363 362 363 363 363
352 352 351 351 350 350 350 350 350 350 350 349 349 349 349 351 354 356 358 359 356 358 360 360 361 362 362 360 361 363 364 363 364 366 365 365 364 364 364 364 364 362
351 351 351 351 350 350 350 350 350 350 349 349 349 348 349 349 351 352 354 356 357 357 359 360 361 362 362 362 359 361 362 362 363 364 363 365 365 364 364 365 363 363
350 351 351 351 351 351 351 351 350 350 350 349 349 349 348 348 348 351 353 354 357 356 356 359 360 360 362 363 361 362 363 362 360 362 362 362 363 362 362 363 363 362
351 352 352 353 353 354 352 351 350 350 351 351 350 349 348 348 347 348 351 352 354 355 357 359 360 360 361 362 362 361 361 361 361 360 359 360 361 361 361 360 361 361
353 352 353 354 354 354 353 351 351 351 351 351 352 350 348 348 348 348 349 350 352 354 355 356 355 356 357 359 360 360 360 358 359 359 359 359 359 358 359 361 360 360
355 355 354 354 354 354 355 353 352 351 350 350 350 351 351 351 350 349 348 349 350 352 353 352 353 354 351 341 345 359 360 357 358 360 360 358 359 359 357 358 358 358
355 355 356 355 355 355 356 356 354 352 352 352 351 351 351 353 351 349 348 347 347 348 349 349 349 349 338 332 333 337 354 359 358 360 361 360 357 359 358 355 356 359
353 355 356 355 356 355 355 356 355 354 354 354 352 350 353 351 350 349 350 348 347 347 347 347 348 340 331 329 330 330 337 354 355 355 354 356 356 354 355 356 355 355
357 356 355 355 356 356 357 356 356 355 354 353 351 352 351 351 351 349 350 350 348 349 347 347 347 336 329 327 327 327 327 339 349 351 350 351 353 355 354 356 357 357
357 356 356 357 358 358 358 356 355 354 353 352 352 353 353 351 350 350 350 351 350 349 350 349 348 338 327 325 325 324 326 331 348 348 350 351 353 354 354 355 358 359
357 356 356 357 356 355 356 356 355 355 355 353 352 352 353 353 350 350 350 351 350 349 349 348 347 333 325 322 321 321 324 328 347 348 349 352 354 355 357 356 358 360
358 356 357 355 352 351 353 354 354 356 356 356 355 353 354 354 354 352 351 351 351 350 349 348 349 330 324 321 320 320 322 338 346 350 350 351 353 356 357 359 359 359
354 354 355 353 351 350 350 351 352 355 356 356 355 354 352 353 354 353 355 353 353 352 351 351 351 337 322 319 318 318 323 344 348 349 352 352 352 356 358 359 359 360
351 352 353 353 353 350 350 351 354 355 356 356 355 353 352 354 355 355 356 356 354 353 353 352 352 342 321 317 316 316 327 346 350 350 352 353 354 355 357 359 360 358
348 352 353 353 353 353 352 351 353 354 356 356 354 355 355 356 357 356 356 357 356 355 349 352 354 346 321 318 316 315 327 348 351 351 351 352 352 353 356 357 359 358
344 349 353 353 352 353 354 353 353 353 353 354 356 356 356 356 357 357 357 357 358 358 357 356 355 357 350 317 315 313 317 347 353 351 351 351 353 352 353 357 358 360
Wind_Speed
10 9 10 9 9 8 7 8 7 7 6 6 6 5 5 5 6 6 6 6 7 7 6 6 6 5 5 5 4 4 3 3 3 3 3 3 4 4 4 4 4 3
12 11 8 8 6 6 7 8 8 7 7 6 5 4 5 5 6 6 6 7 7 7 7 6 6 6 5 5 5 5 4 4 5 3 3 5 4 4 4 5 4 3
12 11 11 12 11 11 11 9 8 8 7 7 6 6 5 5 6 6 6 7 7 7 7 7 6 6 6 6 5 5 5 5 5 5 4 5 5 4 4 4 4 5
13 13 13 13 12 11 10 8 8 7 7 7 7 7 6 5 6 7 7 7 7 7 7 7 7 7 7 7 6 5 6 6 5 4 5 5 5 5 5 4 4 4
15 14 13 12 11 10 9 9 11 9 10 8 7 7 6 6 6 6 7 7 7 7 7 7 7 8 7 7 7 6 6 6 6 5 5 5 5 5 5 4 4 5
13 12 12 11 10 10 10 11 11 11 11 10 9 7 8 8 7 7 7 8 7 8 8 7 8 8 8 7 7 6 6 6 6 6 6 6 6 5 5 4 5 5
15 13 14 13 13 12 12 11 11 11 11 10 8 9 8 9 9 8 8 8 8 7 8 7 7 7 7 7 7 7 7 7 7 6 7 6 6 6 5 5 6 6
15 13 13 12 14 13 13 12 11 11 11 9 10 10 10 10 10 9 9 9 8 8 8 8 7 7 7 7 7 8 8 6 7 8 8 8 6 7 6 5 6 6
14 14 13 15 15 14 15 14 13 12 10 11 12 11 10 11 10 11 9 9 9 8 8 8 8 8 8 8 8 8 9 8 8 8 8 8 8 8 8 7 7 7
14 13 15 15 16 14 15 15 13 12 11 12 12 11 10 11 11 11 10 9 10 9 9 9 9 9 8 8 9 9 9 9 8 8 8 9 9 8 8 8 8 8
15 15 15 16 16 14 16 15 15 13 11 13 12 12 12 10 10 10 10 10 10 11 11 10 10 10 9 9 9 9 9 9 9 9 9 9 9 8 8 8 8 9
15 15 16 17 17 16 16 15 14 13 13 12 13 13 12 11 11 10 10 12 12 11 11 11 10 10 10 10 10 9 9 9 9 9 9 9 9 9 9 9 9 9
16 16 15 16 15 15 14 13 14 14 14 13 13 14 13 13 12 12 11 12 12 12 12 11 11 11 10 10 10 10 9 9 9 9 9 9 9 10 9 9 10 10
16 16 15 14 14 13 13 14 13 13 13 13 12 14 14 14 14 14 12 11 12 12 12 10 10 10 10 10 10 10 10 10 10 10 10 10 10 10 10 10 10 10
14 14 13 13 13 12 13 13 13 13 12 12 12 13 12 14 14 14 13 12 12 11 11 10 10 10 10 10 10 11 11 11 11 11 11 10 10 10 10 10 10 10
12 11 11 12 12 12 13 13 13 13 13 13 13 13 12 11 12 12 13 13 12 12 11 10 10 9 11 15 13 10 11 10 10 10 11 10 10 10 10 11 11 11
11 12 11 11 12 12 11 12 13 12 12 12 12 12 12 11 12 13 13 13 14 13 13 12 11 11 15 15 16 16 11 10 10 10 10 10 11 10 10 11 11 11
12 12 12 12 12 12 12 12 11 11 11 12 12 13 12 12 13 14 13 14 13 14 14 14 13 15 16 16 17 17 15 12 10 10 10 10 11 11 10 10 11 10
10 10 12 12 12 12 11 10 11 12 12 12 14 14 12 12 13 14 14 14 14 14 15 15 14 15 16 17 17 18 18 15 12 11 12 12 11 11 12 10 9 9
7 9 9 9 8 7 7 9 11 13 14 14 12 11 12 13 14 15 14 13 14 14 13 14 15 14 17 18 18 18 18 15 13 14 13 13 12 12 11 11 11 10
7 7 7 4 3 5 7 8 11 11 12 12 12 13 13 13 14 15 14 14 15 15 14 14 14 17 15 18 18 19 18 15 12 13 13 12 12 12 12 12 11 11
3 5 6 8 10 11 11 12 12 12 12 11 11 12 12 12 12 13 14 15 15 15 15 15 16 17 16 17 19 18 17 11 11 12 13 13 12 13 12 11 12 12
2 7 8 8 10 10 12 14 15 15 13 12 13 14 14 13 14 14 14 14 15 15 16 15 15 15 17 18 18 19 13 10 11 11 12 13 14 12 12 12 12 12
4 6 7 8 8 11 12 11 10 10 12 12 13 15 16 16 14 13 14 14 15 16 16 16 16 15 17 18 19 19 16 12 10 11 12 12 12 13 11 11 12 15
3 5 6 8 9 10 11 10 11 11 10 10 13 14 16 15 14 13 13 13 15 17 16 17 16 15 17 19 20 19 17 11 11 10 11 12 12 13 12 11 11 13
6 4 5 7 9 10 10 10 10 11 12 13 14 13 14 15 14 14 15 14 14 15 14 16 17 15 13 20 20 20 21 13 10 11 13 14 13 12 11 11 11 11
Wind_Direction
192 191 194 194 199 200 199 199 207 210 209 211 213 208 204 204 199 197 202 201 202 208 209 209 210 217 223 222 216 214 222 232 255 247 249 246 253 265 261 245 238 242
197 194 192 193 190 191 199 203 201 206 206 205 214 204 204 200 196 201 205 207 205 210 208 205 208 213 220 226 215 220 224 222 232 225 238 241 254 262 260 251 245 239
199 197 197 199 201 200 205 203 204 206 212 212 205 207 207 201 203 199 207 210 213 213 202 204 207 210 217 222 219 222 227 223 232 234 226 245 257 257 269 261 239 223
200 202 203 206 205 197 196 193 199 203 210 204 207 207 204 202 198 201 206 207 216 214 209 203 209 211 212 217 218 228 229 230 238 231 231 240 244 255 260 259 254 238
200 200 203 204 204 194 189 197 205 202 208 211 204 196 194 198 202 208 206 207 213 220 212 207 203 210 206 213 215 228 229 234 228 219 229 238 240 240 252 251 250 248
199 199 198 200 198 190 197 202 203 204 205 206 204 200 202 198 207 211 210 210 212 218 223 217 208 209 209 209 213 224 230 236 230 218 229 236 243 236 247 241 244 245
197 196 200 201 203 201 202 203 203 204 205 209 195 201 197 200 204 209 209 212 218 219 222 218 210 208 206 208 211 217 223 230 234 224 230 237 233 235 236 237 240 247
202 201 202 202 204 203 204 204 206 203 203 197 201 201 198 204 205 209 210 211 216 219 219 219 213 207 210 210 213 217 223 221 224 224 227 235 237 237 230 230 231 239
201 202 198 200 204 206 208 209 207 207 201 203 209 208 201 206 205 208 205 204 214 216 213 217 215 214 212 212 213 214 219 226 226 221 224 230 230 231 234 233 234 238
201 203 201 202 206 209 211 211 209 206 202 208 212 213 204 202 205 205 200 201 209 212 213 216 214 214 215 214 215 216 218 221 224 224 227 230 233 233 232 231 237 242
206 204 205 206 208 210 212 210 209 206 202 207 211 216 215 205 201 201 201 202 209 211 211 213 215 214 215 221 221 220 219 222 222 223 226 230 232 233 233 233 236 242
207 206 208 208 208 211 212 210 208 208 204 203 206 212 213 212 204 202 203 205 210 212 211 211 210 209 211 218 222 221 219 222 223 225 228 229 231 231 230 230 237 241
206 207 207 208 208 211 211 210 209 209 208 207 204 208 210 213 212 207 205 207 208 212 215 213 210 209 209 212 217 219 218 220 226 227 229 231 234 235 236 234 236 240
207 207 208 208 208 207 209 210 210 209 210 209 205 207 211 214 214 211 209 209 211 212 215 214 210 210 209 211 213 214 216 220 222 228 232 233 236 237 238 240 239 240
206 206 208 206 204 203 205 208 209 209 207 207 205 208 211 215 216 217 214 212 215 215 216 216 216 216 214 211 212 214 217 221 222 224 227 233 236 240 238 237 240 242
197 200 205 206 204 206 207 207 210 209 208 207 209 210 212 213 215 216 217 215 214 215 217 219 220 221 215 210 210 214 213 221 222 223 226 229 232 237 241 238 239 242
197 201 202 200 203 207 206 206 210 212 212 212 211 209 210 207 206 211 216 220 220 220 218 219 223 225 217 208 211 215 220 220 219 221 221 224 229 233 239 242 243 241
204 203 201 206 204 207 207 206 208 210 212 209 208 210 206 209 212 215 217 219 221 222 222 222 224 223 212 207 209 212 215 224 227 230 230 228 229 232 235 238 240 242
204 203 205 209 208 207 206 204 205 211 216 217 217 216 214 210 215 215 215 217 221 222 224 225 229 220 207 206 207 208 210 216 232 235 233 233 231 228 230 232 235 237
208 214 217 221 218 222 216 212 212 217 222 223 223 216 213 213 216 218 219 217 219 223 225 228 230 225 204 205 207 208 208 206 227 232 235 237 234 231 230 230 227 228
180 179 196 198 218 239 242 232 232 233 230 227 226 219 213 214 218 220 220 218 219 220 224 229 233 229 204 203 206 207 207 202 222 229 236 238 235 232 230 230 228 225
143 188 194 171 184 190 202 210 221 228 232 230 234 234 230 227 222 223 223 222 222 223 226 231 235 221 204 202 204 207 201 202 217 224 231 236 236 233 230 228 228 228
172 218 222 209 210 206 208 210 205 206 212 220 231 235 237 231 227 223 223 225 225 222 224 229 235 217 200 201 202 202 190 209 214 221 226 231 237 236 232 228 227 226
238 252 249 231 211 215 220 229 231 224 211 200 216 230 236 235 232 230 228 226 225 225 222 226 233 221 195 199 200 194 191 204 210 215 224 227 234 234 234 232 228 222
250 222 218 224 226 221 220 220 223 225 224 219 223 226 232 235 232 234 232 229 229 229 222 225 235 227 193 198 198 193 193 209 211 215 222 229 231 234 231 233 234 221
296 273 226 219 222 228 228 219 222 231 230 228 231 231 233 231 230 230 233 233 232 230 229 225 232 237 201 195 194 193 192 202 209 211 224 226 228 231 233 230 228 232